Weather History for Socorro, NM

Change the Weather History Date:

Monday, June 9, 2014

  Actual Average Record
Temperature  
Mean Temperature 76 °F -  
Max Temperature 91 °F 88 °F 99 °F (2013)
Min Temperature 61 °F 51 °F 55 °F (2012)
Cooling Degree Days 11    
Growing Degree Days 26 (Base 50)    
Moisture  
Dew Point 19 °F    
Average Humidity 12    
Maximum Humidity 26    
Minimum Humidity 6    
Precipitation  
Precipitation 0.00 in - - ()
Sea Level Pressure  
Sea Level Pressure 30.02 in    
Wind  
Wind Speed 10 mph (North)    
Max Wind Speed 20 mph    
Max Gust Speed 25 mph    
Visibility 10 miles    
Events      
Averages and records for this station are not official NWS values.
T = Trace of Precipitation, MM = Missing Value Source: NWS Daily Summary

Daily Weather History Graph

Daily Weather History Graph

Search for Another Location

Airport:

Trip Planner

Search our weather history database for the weather conditions in past years. The results will help you decide how hot, cold, wet, or windy it might be!

Date:

Astronomy

Jun. 09, 2014 Rise Set
Actual Time 5:55 AM MDT 8:18 PM MDT
Civil Twilight 5:26 AM MDT 8:47 PM MDT
Nautical Twilight 4:51 AM MDT 9:22 PM MDT
Astronomical Twilight 4:12 AM MDT 10:02 PM MDT
Moon 4:50 PM MDT (6/9) 3:15 AM MDT (6/9)
Length of Visible Light 15h 20m
Length of Day
14h 22m
Waxing Gibbous, 85% of the Moon is Illuminated
Jun 9
Waxing Gibbous
Jun 12
Full
Jun 19
Last Quarter
Jun 27
New
Jul 5
First Quarter

Hourly Weather History & Observations

Time (MDT) Temp. Dew Point Humidity Pressure Visibility Wind Dir Wind Speed Gust Speed Precip Events Conditions
12:15 AM 76.6 °F 15.8 °F 10% 29.93 in 10.0 mi NNE 10.4 mph 16.1 mph N/A   Clear
12:35 AM 74.7 °F 17.8 °F 12% 29.95 in 10.0 mi Calm Calm - N/A   Clear
12:55 AM 73.8 °F 18.5 °F 12% 29.97 in 10.0 mi North 13.8 mph 25.3 mph N/A   Clear
1:15 AM 73.8 °F 19.8 °F 13% 29.98 in 10.0 mi North 9.2 mph - N/A   Clear
1:35 AM 73.6 °F 21.7 °F 14% 29.99 in 10.0 mi NNW 11.5 mph 21.9 mph N/A   Clear
1:55 AM 73.8 °F 21.9 °F 14% 29.99 in 10.0 mi NNW 18.4 mph 23.0 mph N/A   Clear
2:15 AM 73.0 °F 22.1 °F 15% 30.00 in 10.0 mi North 13.8 mph 21.9 mph N/A   Clear
2:35 AM 72.1 °F 22.3 °F 15% 30.01 in 10.0 mi NNW 16.1 mph 21.9 mph N/A   Clear
2:55 AM 71.6 °F 22.1 °F 16% 30.02 in 10.0 mi NNW 19.6 mph 24.2 mph N/A   Clear
3:15 AM 70.9 °F 21.7 °F 16% 30.02 in 10.0 mi NNW 15.0 mph 23.0 mph N/A   Clear
3:35 AM 70.2 °F 20.8 °F 15% 30.03 in 10.0 mi NNW 15.0 mph 21.9 mph N/A   Clear
3:55 AM 69.4 °F 20.1 °F 15% 30.04 in 10.0 mi North 13.8 mph - N/A   Clear
4:15 AM 68.7 °F 21.4 °F 17% 30.04 in 10.0 mi North 12.7 mph 20.7 mph N/A   Clear
4:35 AM 68.2 °F 21.9 °F 17% 30.05 in 10.0 mi North 13.8 mph 20.7 mph N/A   Clear
4:55 AM 67.1 °F 22.1 °F 18% 30.06 in 10.0 mi NNW 13.8 mph 19.6 mph N/A   Clear
5:15 AM 65.7 °F 21.6 °F 19% 30.06 in 10.0 mi NNW 16.1 mph 19.6 mph N/A   Clear
5:35 AM 66.7 °F 20.8 °F 17% 30.06 in 10.0 mi NNW 10.4 mph 21.9 mph N/A   Clear
5:55 AM 63.5 °F 22.1 °F 21% 30.07 in 10.0 mi NNE 6.9 mph - N/A   Clear
6:15 AM 61.0 °F 25.5 °F 26% 30.08 in 10.0 mi East 3.5 mph - N/A   Clear
6:35 AM 62.2 °F 24.6 °F 24% 30.09 in 10.0 mi NE 5.8 mph - N/A   Clear
6:55 AM 63.3 °F 24.8 °F 23% 30.09 in 10.0 mi NE 5.8 mph - N/A   Clear
7:15 AM 65.1 °F 25.0 °F 22% 30.10 in 10.0 mi NNE 10.4 mph - N/A   Clear
7:35 AM 65.8 °F 26.1 °F 22% 30.10 in 10.0 mi North 8.1 mph - N/A   Clear
7:55 AM 67.1 °F 26.8 °F 22% 30.11 in 10.0 mi North 8.1 mph - N/A   Clear
8:15 AM 68.4 °F 26.1 °F 20% 30.12 in 10.0 mi North 9.2 mph - N/A   Clear
8:35 AM 69.8 °F 25.3 °F 19% 30.11 in 10.0 mi North 11.5 mph - N/A   Clear
8:55 AM 70.9 °F 24.8 °F 18% 30.11 in 10.0 mi North 13.8 mph - N/A   Clear
9:15 AM 71.4 °F 25.2 °F 18% 30.11 in 10.0 mi North 11.5 mph - N/A   Clear
9:35 AM 72.7 °F 23.5 °F 16% 30.11 in 10.0 mi North 13.8 mph - N/A   Clear
9:55 AM 74.1 °F 21.9 °F 14% 30.10 in 10.0 mi NNE 17.3 mph 23.0 mph N/A   Clear
10:35 AM 75.9 °F 21.4 °F 13% 30.10 in 10.0 mi North 12.7 mph 20.7 mph N/A   Clear
10:55 AM 77.9 °F 21.4 °F 12% 30.10 in 10.0 mi NNE 13.8 mph 21.9 mph N/A   Clear
11:15 AM 78.8 °F 20.7 °F 11% 30.09 in 10.0 mi NNE 16.1 mph - N/A   Clear
11:35 AM 79.2 °F 20.8 °F 11% 30.09 in 10.0 mi NNE 13.8 mph - N/A   Clear
11:55 AM 79.9 °F 20.5 °F 11% 30.08 in 10.0 mi NE 12.7 mph - N/A   Clear
12:15 PM 81.0 °F 20.8 °F 11% 30.08 in 10.0 mi NNE 13.8 mph 19.6 mph N/A   Clear
12:35 PM 81.9 °F 20.3 °F 10% 30.07 in 10.0 mi NE 8.1 mph - N/A   Clear
1:35 PM 84.6 °F 19.9 °F 9% 30.04 in 10.0 mi North 12.7 mph 19.6 mph N/A   Clear
1:55 PM 85.8 °F 19.2 °F 9% 30.03 in 10.0 mi NNE 11.5 mph 18.4 mph N/A   Clear
2:15 PM 86.7 °F 18.5 °F 8% 30.02 in 10.0 mi NE 11.5 mph 16.1 mph N/A   Clear
2:35 PM 87.8 °F 18.3 °F 8% 30.01 in 10.0 mi NNE 10.4 mph 21.9 mph N/A   Clear
3:15 PM 88.9 °F 17.4 °F 7% 29.98 in 10.0 mi NE 16.1 mph 20.7 mph N/A   Clear
3:35 PM 90.3 °F 16.9 °F 7% 29.97 in 10.0 mi NNE 11.5 mph 19.6 mph N/A   Clear
3:55 PM 90.1 °F 15.3 °F 6% 29.96 in 10.0 mi North 10.4 mph 17.3 mph N/A   Clear
4:15 PM 90.3 °F 15.1 °F 6% 29.95 in 10.0 mi NNE 9.2 mph 16.1 mph N/A   Clear
4:35 PM 90.1 °F 15.4 °F 6% 29.94 in 10.0 mi NNE 10.4 mph - N/A   Clear
4:55 PM 91.2 °F 14.4 °F 6% 29.95 in 10.0 mi NNE 9.2 mph - N/A   Clear
5:15 PM 89.6 °F 13.3 °F 6% 29.94 in 10.0 mi Calm Calm - N/A   Clear
5:35 PM 90.9 °F 13.3 °F 6% 29.93 in 10.0 mi NE 6.9 mph - N/A   Clear
5:55 PM 90.0 °F 14.4 °F 6% 29.93 in 10.0 mi SE 3.5 mph - N/A   Clear
6:15 PM 88.7 °F 14.4 °F 6% 29.93 in 10.0 mi Calm Calm - N/A   Clear
6:35 PM 89.1 °F 13.3 °F 6% 29.93 in 10.0 mi SSE 3.5 mph - N/A   Clear
6:55 PM 88.7 °F 12.9 °F 6% 29.94 in 10.0 mi East 4.6 mph - N/A   Clear
7:15 PM 88.3 °F 12.6 °F 6% 29.94 in 10.0 mi Calm Calm - N/A   Clear
7:35 PM 87.8 °F 12.7 °F 6% 29.94 in 10.0 mi ENE 3.5 mph - N/A   Clear
7:55 PM 86.4 °F 13.8 °F 7% 29.95 in 10.0 mi Calm Calm - N/A   Clear
8:15 PM 84.0 °F 13.6 °F 7% 29.95 in 10.0 mi Calm Calm - N/A   Clear
8:35 PM 78.8 °F 12.0 °F 8% 29.96 in 10.0 mi Calm Calm - N/A   Clear
8:55 PM 72.9 °F 10.2 °F 9% 29.97 in 10.0 mi SSW 5.8 mph - N/A   Clear
9:15 PM 72.7 °F 11.1 °F 9% 29.98 in 10.0 mi SSW 5.8 mph - N/A   Clear
9:35 PM 72.3 °F 18.9 °F 13% 29.99 in 10.0 mi NE 3.5 mph - N/A   Clear
9:55 PM 74.1 °F 18.1 °F 12% 30.00 in 10.0 mi Calm Calm - N/A   Clear
10:15 PM 71.6 °F 16.3 °F 12% 30.01 in 10.0 mi WNW 5.8 mph - N/A   Clear
10:35 PM 72.1 °F 14.0 °F 11% 30.02 in 10.0 mi WNW 8.1 mph - N/A   Clear
10:55 PM 70.9 °F 12.9 °F 11% 30.02 in 10.0 mi NNW 9.2 mph - N/A   Clear
11:15 PM 67.8 °F 11.7 °F 11% 30.02 in 10.0 mi NW 8.1 mph - N/A   Clear
11:35 PM 69.1 °F 9.9 °F 10% 30.02 in 10.0 mi WNW 9.2 mph - N/A   Clear
11:55 PM 70.0 °F 8.1 °F 9% 30.02 in 10.0 mi NW 11.5 mph - N/A   Clear